Tracking 29892 objects as of 21-Nov-2024
HD Live streaming from Space Station
objects crossing your sky now

CZ-6A DEB

Track CZ-6A DEB now!
10-day predictions


NORAD ID: 54592
Int'l Code: 2022-151MS
Perigee: 668.4 km
Apogee: 766.6 km
Inclination: 98.6 °
Period: 99.0 minutes
Semi major axis: 7088 km
RCS: Unknown
Launch date: November 11, 2022
Source: People's Republic of China (PRC)
Launch site: Taiyaun Space Center, China (TSC)

Note: This is SATELLITE DEBRIS
Your satellite tracking list
Your tracking list is empty




NASA's NSSDC Master Catalog

Two Line Element Set (TLE):
1 54592U 22151MS  24324.99110270  .00029752  00000-0  67172-2 0  9990
2 54592  98.5687 340.6544 0069279 272.0167  87.3096 14.54703473105708
Source of the keplerian elements: AFSPC